Location: Austin
(30.3000°N, 97.7500°W)
Time: 00:12:10
(UTC-06:00)

Cosmos 2016 Rocket - Pass Details

Date: 04 November 2025
Orbit: 947 x 998 km, 83.0° (Epoch: 15 November)

Event Time Altitude Azimuth Distance (km) Brightness Sun altitude
Rises 18:33:20 0° 181° (S) 3,621 7.2 -11.8°
Reaches altitude 10° 18:35:48 10° 181° (S) 2,685 6.5 -12.3°
Maximum altitude 18:41:57 82° 95° (E) 982 3.9 -13.6°
Drops below altitude 10° 18:48:13 10° 8° (N) 2,734 6.2 -15.0°
Sets 18:50:45 0° 7° (N) 3,693 6.9 -15.5°
